Regional Weather Roundup
Issued by NWS Charleston, WV

Home | Current Version | Previous Version | Text Only | Print | Product List | Glossary On
Versions: 1 2 3 4 5 6 7 8 9 10 11 12 13 14 15 16 17 18 19 20 21 22 23 24 25 26 27 28 29 30 31 32 33 34 35 36 37 38 39 40 41 42 43 44 45 46 47 48 49 50
000
ASUS41 KRLX 112110
RWRRLX
West Virginia Regional Weather Roundup
National Weather Service Charleston WV
400 PM EST THU FEB 11 2016

Note: "fair" indicates few or no clouds below 12,000 feet with no
significant weather and/or obstructions to visibility.

WVZ003-112200-
Northern Panhandle of West Virginia

CITY           SKY/WX    TMP DP  RH WIND       PRES   REMARKS
WHEELING       CLOUDY    18   0  45 W12       30.19R WCI   5
$$

WVZ009-112200-
Northwest West Virginia

CITY           SKY/WX    TMP DP  RH WIND       PRES   REMARKS
PARKERSBURG    PTSUNNY   21   4  47 W13       30.27R WCI   9
$$

WVZ006-112200-
Western West Virginia

CITY           SKY/WX    TMP DP  RH WIND       PRES   REMARKS
HUNTINGTON       N/A     29   6  38 N9        30.24R
$$

WVZ015-112200-
West Central West Virginia

CITY           SKY/WX    TMP DP  RH WIND       PRES   REMARKS
CHARLESTON     PTSUNNY   24   4  42 NW9       30.23R
$$

WVZ022-031-112200-
North Central West Virginia

CITY           SKY/WX    TMP DP  RH WIND       PRES   REMARKS
CLARKSBURG     CLOUDY    19   2  47 W13       30.19R WCI   6
MORGANTOWN     CLOUDY    19  -1  41 W10G22    30.18R WCI   7
$$

WVZ025-035-042-045-112200-
Southern West Virginia

CITY           SKY/WX    TMP DP  RH WIND       PRES   REMARKS
BECKLEY          N/A     21   3  45 NW8       30.09R
LOGAN            N/A     25   7  46 CALM      30.16R
BLUEFIELD        N/A     21   1  41 NW9       30.06R
LEWISBURG        N/A     23   2  40 NW9       30.10R
$$

WVZ047-112200-
Northern Mountains of West Virginia

CITY           SKY/WX    TMP DP  RH WIND       PRES   REMARKS
ELKINS         CLOUDY    16   1  51 W9        30.13R WCI   4
$$

WVZ052-112200-
Eastern Panhandle of West Virginia

CITY           SKY/WX    TMP DP  RH WIND       PRES   REMARKS
MARTINSBURG    PTSUNNY   24  -2  32 NW21G31   30.15R WCI   9
PETERSBURG       N/A     23   2  39 W22       30.17R WCI   7
$$



USA.gov is the U.S. government's official web portal to all federal, state and local government web resources and services.